COSMOS 2491 DEB, 57550

Orbit data source: Space-Track

COSMOS 2491 DEB, 57550 is space debris in LEO originally from a launch on Wed, 25 Dec 2013 UTC launched from the Plesetsk Missile And Space Complex (PKMTR). Debris objects in space refer to the collection of defunct objects orbiting the Earth. Examples of debris include non-operational satellites, rocket bodies, and fragments generated from explosions, collisions, or faulty payload assembly.

Loading next visibility...
Identifier
57550, 2013-076AM
Orbit
LEO
Last TLE update
3 weeks ago
Origin
Manufacturer
TsNIIKhM
Mission
Spacecraft
Bus & Motor
Unknown
Mass
Unknown
Launch date (UTC)
2013-12-25 (11 years ago)
Launch vehicle
Unknown
Launch site
Plesetsk Missile And Space Complex (PKMTR)
Object type
Payload
Rocket body
Debris
Shape & HBR
Unknown
Radar Cross Section
Small (<0.1 m²)

Expand to show TLE details & history

TLE from 3 weeks ago
0 COSMOS 2491 DEB
1 57550U 13076AM  25106.02432730  .00006009  00000-0  26219-1 0  9990
2 57550  82.4388  20.6529 0230642  11.5472 349.0789 12.72534494 89703
Epoch: 2025-04-16T00:35Z
Definitive object data (Epoch: 2025-04-16T00:35:01.878Z)
Latitude
-0.00004°
Longitude
167.47855°
Altitude
1,198.992 km
Speed
7.336 km/s
True Right ascension
01h 22m 36s
True Declination
0° 00' 00"
Sunlit
Object was in daylight at TLE epoch
Visualization TLE readout
Latitude
41.16013°
Longitude
-34.65409°
Altitude
1,554.754 km
Speed
7.011 km/s
Apparent Right ascension
09h 14m 55s
Apparent Declination
8° 23' 11"
Sunlit
Object is in daylight
Visualization observer readout
Local Sidereal Time
17:49:28
Azimuth
303.33° NW
Elevation
-22.344°
Doppler factor
1
Orbital elements
Apogee altitude
1,547.622 km
Perigee altitude
1,190.262 km
Semi-major axis
7,747.079 km
Eccentricity
0.0230642
Inclination
82.4388°
RAAN
20.6529°
Arg. of periapsis
11.5472°
True anomaly
348.56361°
Mean anomaly
349.0789°
Eccentric anomaly
348.82274°
Mean motion
3.183 °/min
BSTAR
0.026219
Orbital period
113.1 mins
Loading maneuver chart data...
Loading SW <> Apogee altitude chart data...
Loading historical data...
Loading historical data...
Loading historical data...
Loading historical data...
Loading historical data...
Loading historical data...
Loading historical data...

COSMOS 2491 DEB Visibility forecast

Observer location: undefined°, undefined°

Span
Click to sort rows by Start time (UTC) header in descending order
Start Az.
Max El. time (UTC)
Max El. Az.
Max El.
End time (UTC)
End Az.
9 mins2025-05-09 14:44:06.326Z112.66° SE2025-05-09 14:48:06.326Z80.26° E16.834°2025-05-09 14:53:06.326Z41.251° NE
14 mins2025-05-09 16:35:06.326Z190.095° SSW2025-05-09 16:41:06.326Z259.711° W44.764°2025-05-09 16:49:06.326Z6.295° NNE
7 mins2025-05-09 18:34:06.326Z277.694° WNW2025-05-09 18:37:06.326Z302.376° NW15.061°2025-05-09 18:41:06.326Z332.331° NNW
15 mins2025-05-10 02:31:06.326Z8.51° NNE2025-05-10 02:38:06.326Z68.176° E33.192°2025-05-10 02:46:06.326Z138.894° SSE
14 mins2025-05-10 04:26:06.326Z335.102° NNW2025-05-10 04:32:06.326Z279.906° WNW35.732°2025-05-10 04:40:06.326Z205.224° SW
|